TimeMDT,TemperatureF,Dew PointF,Humidity,Sea Level PressureIn,VisibilityMPH,Wind Direction,Wind SpeedMPH,Gust SpeedMPH,PrecipitationIn,Events,Conditions,WindDirDegrees,DateUTC
12:53 AM,80.1,54.0,40,29.77,10.0,SSW,10.4,-,N/A,,Clear,200,2013-08-21 06:53:00
1:53 AM,78.1,52.0,40,29.76,10.0,SSW,10.4,-,N/A,,Clear,200,2013-08-21 07:53:00
2:53 AM,75.9,48.9,38,29.76,10.0,SW,15.0,-,N/A,,Clear,220,2013-08-21 08:53:00
3:53 AM,69.1,50.0,51,29.79,10.0,WNW,5.8,-,N/A,,Clear,290,2013-08-21 09:53:00
4:53 AM,66.0,48.9,54,29.80,10.0,West,10.4,-,N/A,,Clear,260,2013-08-21 10:53:00
5:53 AM,66.0,46.9,50,29.80,10.0,West,11.5,-,N/A,,Clear,260,2013-08-21 11:53:00
6:53 AM,64.0,53.1,67,29.84,10.0,WNW,12.7,-,N/A,,Clear,290,2013-08-21 12:53:00
7:53 AM,70.0,55.0,59,29.85,10.0,WNW,10.4,-,N/A,,Clear,290,2013-08-21 13:53:00
8:53 AM,75.0,55.9,51,29.86,10.0,WNW,9.2,-,N/A,,Clear,300,2013-08-21 14:53:00
9:53 AM,81.0,57.0,44,29.86,10.0,WNW,9.2,-,N/A,,Clear,300,2013-08-21 15:53:00
10:53 AM,88.0,50.0,27,29.85,10.0,NW,8.1,-,N/A,,Clear,320,2013-08-21 16:53:00
11:53 AM,91.0,50.0,24,29.83,10.0,Variable,3.5,-,N/A,,Clear,0,2013-08-21 17:53:00
12:53 PM,93.9,48.0,21,29.81,10.0,Variable,4.6,-,N/A,,Clear,0,2013-08-21 18:53:00
1:53 PM,96.1,46.0,18,29.81,10.0,South,5.8,-,N/A,,Clear,180,2013-08-21 19:53:00
2:53 PM,98.1,41.0,14,29.78,10.0,Calm,Calm,-,N/A,,Clear,0,2013-08-21 20:53:00
3:53 PM,98.1,43.0,15,29.78,10.0,Variable,6.9,-,N/A,,Clear,0,2013-08-21 21:53:00
4:53 PM,100.0,42.1,14,29.76,10.0,North,8.1,-,N/A,,Clear,10,2013-08-21 22:53:00
5:53 PM,98.1,42.1,15,29.77,10.0,North,6.9,-,N/A,,Clear,10,2013-08-21 23:53:00
6:53 PM,91.0,48.0,23,29.78,10.0,NNE,6.9,-,N/A,,Clear,30,2013-08-22 00:53:00
7:53 PM,88.0,46.9,24,29.78,10.0,NNE,4.6,-,N/A,,Clear,20,2013-08-22 01:53:00
8:53 PM,91.0,43.0,19,29.81,10.0,SSW,12.7,26.5,N/A,,Partly Cloudy,210,2013-08-22 02:53:00
9:53 PM,84.9,46.9,27,29.83,10.0,West,19.6,-,N/A,,Clear,280,2013-08-22 03:53:00
10:53 PM,82.0,46.9,29,29.82,10.0,WNW,17.3,-,N/A,,Clear,290,2013-08-22 04:53:00
11:24 PM,82.4,46.4,28,30.04,10.0,West,20.7,-,N/A,,Clear,270,2013-08-22 05:24:00
11:53 PM,80.1,46.9,31,29.84,10.0,WSW,15.0,-,N/A,,Clear,250,2013-08-22 05:53:00